Location: Follega
(52.8850°N, 5.7362°E)
Time: 21:30:30
(UTC+00:00)

Cosmos 1953 - Visible Passes

Search period start: 29 September 2020 00:00
Search period end: 09 October 2020 00:00
Orbit: 538 x 559 km, 82.5° (Epoch: 28 September)

Date Brightness Start Highest point End Pass type
(mag) Time Alt. Az. Time Alt. Az. Time Alt. Az.
29 Sep 4.2 20:09:48 23° NNE 20:09:48 23° NNE 20:11:22 10° NNE visible
29 Sep 5.4 21:45:27 13° NW 21:45:27 13° NW 21:46:32 10° NNW visible
30 Sep 4.0 20:04:43 26° NNE 20:04:43 26° NNE 20:06:32 10° NNE visible
30 Sep 5.4 21:40:23 13° NW 21:40:23 13° NW 21:41:33 10° NNW visible
01 Oct 3.7 19:59:35 30° NNE 19:59:35 30° NNE 20:01:41 10° NNE visible
01 Oct 5.4 21:35:15 12° NW 21:35:15 12° NW 21:36:33 10° NNW visible
02 Oct 3.4 19:54:22 37° N 19:54:22 37° N 19:56:51 10° N visible
02 Oct 5.4 21:30:01 12° WNW 21:30:01 12° WNW 21:31:31 10° NW visible
03 Oct 4.4 18:13:23 11° ENE 18:13:23 11° ENE 18:13:47 10° ENE visible
03 Oct 2.9 19:49:01 49° N 19:49:01 49° N 19:52:01 10° N visible
03 Oct 5.5 21:24:40 11° WNW 21:25:07 11° WNW 21:26:27 10° NW visible
04 Oct 4.2 18:07:51 13° ENE 18:07:51 13° ENE 18:09:09 10° NE visible
04 Oct 2.4 19:43:28 71° NNW 19:43:28 71° NNW 19:47:10 10° N visible
04 Oct 5.5 21:19:21 10° WNW 21:20:20 11° WNW 21:21:18 10° NW visible
05 Oct 4.0 18:01:55 13° E 18:02:29 14° E 18:04:29 10° NE visible
05 Oct 2.4 19:37:30 52° SW 19:38:19 71° WNW 19:42:19 10° N visible
05 Oct 5.6 21:15:10 10° WNW 21:15:32 10° WNW 21:15:54 10° NW visible
06 Oct 4.0 17:55:25 10° ESE 17:57:36 14° E 17:59:48 10° NE visible
06 Oct 2.6 19:29:33 10° SSW 19:33:30 66° WNW 19:37:28 10° N visible
07 Oct 3.9 17:50:23 10° ESE 17:52:44 15° E 17:55:05 10° NE visible
07 Oct 2.7 19:24:43 10° SSW 19:28:39 62° WNW 19:32:37 10° N visible
08 Oct 3.8 17:45:21 10° SE 17:47:51 16° E 17:50:22 10° NE visible
08 Oct 2.9 19:19:54 10° SSW 19:23:49 58° WNW 19:27:46 10° N visible
